Year,Month,Day,Hour,Minute,Value (Times are PST for temperature in C)
2011,08,08,00,00,14.90
2011,08,08,00,01,14.90
2011,08,08,00,02,14.90
2011,08,08,00,03,14.80
2011,08,08,00,04,14.80
2011,08,08,00,05,14.70
2011,08,08,00,06,14.70
2011,08,08,00,07,14.70
2011,08,08,00,08,14.70
2011,08,08,00,09,14.70
2011,08,08,00,10,14.60
2011,08,08,00,11,14.60
2011,08,08,00,12,14.60
2011,08,08,00,13,14.60
2011,08,08,00,14,14.60
2011,08,08,00,15,14.60
2011,08,08,00,16,14.60
2011,08,08,00,17,14.60
2011,08,08,00,18,14.60
2011,08,08,00,19,14.60
2011,08,08,00,20,14.60
2011,08,08,00,21,14.50
2011,08,08,00,22,14.50
2011,08,08,00,23,14.50
2011,08,08,00,24,14.40
2011,08,08,00,25,14.40
2011,08,08,00,26,14.40
2011,08,08,00,27,14.40
2011,08,08,00,28,14.40
2011,08,08,00,29,14.40
2011,08,08,00,30,14.40
2011,08,08,00,31,14.40
2011,08,08,00,32,14.30
2011,08,08,00,33,14.30
2011,08,08,00,34,14.30
2011,08,08,00,35,14.30
2011,08,08,00,36,14.30
2011,08,08,00,37,14.30
2011,08,08,00,38,14.30
2011,08,08,00,39,14.30
2011,08,08,00,40,14.30
2011,08,08,00,41,14.30
2011,08,08,00,42,14.30
2011,08,08,00,43,14.30
2011,08,08,00,44,14.30
2011,08,08,00,45,14.30
2011,08,08,00,46,14.30
2011,08,08,00,47,14.30
2011,08,08,00,48,14.30
2011,08,08,00,49,14.20
2011,08,08,00,50,14.20
2011,08,08,00,51,14.20
2011,08,08,00,52,14.20
2011,08,08,00,53,14.20
2011,08,08,00,54,14.20
2011,08,08,00,55,14.20
2011,08,08,00,56,14.20
2011,08,08,00,57,14.20
2011,08,08,00,58,14.20
2011,08,08,00,59,14.10
2011,08,08,01,00,14.10
2011,08,08,01,01,14.10
2011,08,08,01,02,14.00
2011,08,08,01,03,14.00
2011,08,08,01,04,13.90
2011,08,08,01,05,13.90
2011,08,08,01,06,13.90
2011,08,08,01,07,13.90
2011,08,08,01,08,13.90
2011,08,08,01,09,13.80
2011,08,08,01,10,13.80
2011,08,08,01,11,13.80
2011,08,08,01,12,13.80
2011,08,08,01,13,13.80
2011,08,08,01,14,13.80
2011,08,08,01,15,13.80
2011,08,08,01,16,13.80
2011,08,08,01,17,13.80
2011,08,08,01,18,13.80
2011,08,08,01,19,13.80
2011,08,08,01,20,13.80
2011,08,08,01,21,13.80
2011,08,08,01,22,13.80
2011,08,08,01,23,13.80
2011,08,08,01,24,13.80
2011,08,08,01,25,13.80
2011,08,08,01,26,13.70
2011,08,08,01,27,13.70
2011,08,08,01,28,13.70
2011,08,08,01,29,13.70
2011,08,08,01,30,13.70
2011,08,08,01,31,13.70
2011,08,08,01,32,13.70
2011,08,08,01,33,13.70
2011,08,08,01,34,13.70
2011,08,08,01,35,13.70
2011,08,08,01,36,13.70
2011,08,08,01,37,13.60
2011,08,08,01,38,13.60
2011,08,08,01,39,13.60
2011,08,08,01,40,13.50
2011,08,08,01,41,13.50
2011,08,08,01,42,13.50
2011,08,08,01,43,13.50
2011,08,08,01,44,13.40
2011,08,08,01,45,13.40
2011,08,08,01,46,13.40
2011,08,08,01,47,13.40
2011,08,08,01,48,13.40
2011,08,08,01,49,13.40
2011,08,08,01,50,13.40
2011,08,08,01,51,13.30
2011,08,08,01,52,13.30
2011,08,08,01,53,13.30
2011,08,08,01,54,13.30
2011,08,08,01,55,13.30
2011,08,08,01,56,13.20
2011,08,08,01,57,13.20
2011,08,08,01,58,13.20
2011,08,08,01,59,13.20
2011,08,08,02,00,13.10
2011,08,08,02,01,13.10
2011,08,08,02,02,13.10
2011,08,08,02,03,13.00
2011,08,08,02,04,13.00
2011,08,08,02,05,13.00
2011,08,08,02,06,13.00
2011,08,08,02,07,13.00
2011,08,08,02,08,13.00
2011,08,08,02,09,13.00
2011,08,08,02,10,13.00
2011,08,08,02,11,13.00
2011,08,08,02,12,13.00
2011,08,08,02,13,13.00
2011,08,08,02,14,13.00
2011,08,08,02,15,13.00
2011,08,08,02,16,13.00
2011,08,08,02,17,13.00
2011,08,08,02,18,13.00
2011,08,08,02,19,13.00
2011,08,08,02,20,13.00
2011,08,08,02,21,13.00
2011,08,08,02,22,13.00
2011,08,08,02,23,13.00
2011,08,08,02,24,13.00
2011,08,08,02,25,13.00
2011,08,08,02,26,13.00
2011,08,08,02,27,13.00
2011,08,08,02,28,13.00
2011,08,08,02,29,12.90
2011,08,08,02,30,12.90
2011,08,08,02,31,12.90
2011,08,08,02,32,12.90
2011,08,08,02,33,12.90
2011,08,08,02,34,12.80
2011,08,08,02,35,12.80
2011,08,08,02,36,12.80
2011,08,08,02,37,12.80
2011,08,08,02,38,12.80
2011,08,08,02,39,12.80
2011,08,08,02,40,12.90
2011,08,08,02,41,12.90
2011,08,08,02,42,12.90
2011,08,08,02,43,12.90
2011,08,08,02,44,12.90
2011,08,08,02,45,12.90
2011,08,08,02,46,12.80
2011,08,08,02,47,12.80
2011,08,08,02,48,12.80
2011,08,08,02,49,12.80
2011,08,08,02,50,12.80
2011,08,08,02,51,12.80
2011,08,08,02,52,12.80
2011,08,08,02,53,12.80
2011,08,08,02,54,12.80
2011,08,08,02,55,12.80
2011,08,08,02,56,12.80
2011,08,08,02,57,12.80
2011,08,08,02,58,12.70
2011,08,08,02,59,12.70
2011,08,08,03,00,12.70
2011,08,08,03,01,12.70
2011,08,08,03,02,12.70
2011,08,08,03,03,12.60
2011,08,08,03,04,12.60
2011,08,08,03,05,12.60
2011,08,08,03,06,12.60
2011,08,08,03,07,12.60
2011,08,08,03,08,12.60
2011,08,08,03,09,12.60
2011,08,08,03,10,12.60
2011,08,08,03,11,12.60
2011,08,08,03,12,12.60
2011,08,08,03,13,12.50
2011,08,08,03,14,12.50
2011,08,08,03,15,12.50
2011,08,08,03,16,12.50
2011,08,08,03,17,12.50
2011,08,08,03,18,12.50
2011,08,08,03,19,12.50
2011,08,08,03,20,12.50
2011,08,08,03,21,12.50
2011,08,08,03,22,12.50
2011,08,08,03,23,12.50
2011,08,08,03,24,12.50
2011,08,08,03,25,12.50
2011,08,08,03,26,12.50
2011,08,08,03,27,12.50
2011,08,08,03,28,12.50
2011,08,08,03,29,12.50
2011,08,08,03,30,12.50
2011,08,08,03,31,12.50
2011,08,08,03,32,12.50
2011,08,08,03,33,12.50
2011,08,08,03,34,12.50
2011,08,08,03,35,12.50
2011,08,08,03,36,12.50
2011,08,08,03,37,12.50
2011,08,08,03,38,12.60
2011,08,08,03,39,12.60
2011,08,08,03,40,12.50
2011,08,08,03,41,12.50
2011,08,08,03,42,12.50
2011,08,08,03,43,12.50
2011,08,08,03,44,12.40
2011,08,08,03,45,12.40
2011,08,08,03,46,12.40
2011,08,08,03,47,12.30
2011,08,08,03,48,12.30
2011,08,08,03,49,12.30
2011,08,08,03,50,12.20
2011,08,08,03,51,12.20
2011,08,08,03,52,12.20
2011,08,08,03,53,12.20
2011,08,08,03,54,12.20
2011,08,08,03,55,12.20
2011,08,08,03,56,12.20
2011,08,08,03,57,12.10
2011,08,08,03,58,12.10
2011,08,08,03,59,12.10
2011,08,08,04,00,12.10
2011,08,08,04,01,12.10
2011,08,08,04,02,12.10
2011,08,08,04,03,12.10
2011,08,08,04,04,12.10
2011,08,08,04,05,12.10
2011,08,08,04,06,12.10
2011,08,08,04,07,12.10
2011,08,08,04,08,12.00
2011,08,08,04,09,12.00
2011,08,08,04,10,12.00
2011,08,08,04,11,12.00
2011,08,08,04,12,12.00
2011,08,08,04,13,12.00
2011,08,08,04,14,12.00
2011,08,08,04,15,12.00
2011,08,08,04,16,12.00
2011,08,08,04,17,12.10
2011,08,08,04,18,12.00
2011,08,08,04,19,12.00
2011,08,08,04,20,12.00
2011,08,08,04,21,12.00
2011,08,08,04,22,11.90
2011,08,08,04,23,11.90
2011,08,08,04,24,11.90
2011,08,08,04,25,11.90
2011,08,08,04,26,11.90
2011,08,08,04,27,11.90
2011,08,08,04,28,11.90
2011,08,08,04,29,11.90
2011,08,08,04,30,11.80
2011,08,08,04,31,11.80
2011,08,08,04,32,11.80
2011,08,08,04,33,11.80
2011,08,08,04,34,11.80
2011,08,08,04,35,11.80
2011,08,08,04,36,11.80
2011,08,08,04,37,11.80
2011,08,08,04,38,11.80
2011,08,08,04,39,11.80
2011,08,08,04,40,11.80
2011,08,08,04,41,11.80
2011,08,08,04,42,11.80
2011,08,08,04,43,11.80
2011,08,08,04,44,11.80
2011,08,08,04,45,11.80
2011,08,08,04,46,11.80
2011,08,08,04,47,11.80
2011,08,08,04,48,11.70
2011,08,08,04,49,11.80
2011,08,08,04,50,11.80
2011,08,08,04,51,11.80
2011,08,08,04,52,11.80
2011,08,08,04,53,11.80
2011,08,08,04,54,11.80
2011,08,08,04,55,11.80
2011,08,08,04,56,11.80
2011,08,08,04,57,11.80
2011,08,08,04,58,11.80
2011,08,08,04,59,11.80
2011,08,08,05,00,11.80
2011,08,08,05,01,11.70
2011,08,08,05,02,11.70
2011,08,08,05,03,11.70
2011,08,08,05,04,11.70
2011,08,08,05,05,11.70
2011,08,08,05,06,11.70
2011,08,08,05,07,11.70
2011,08,08,05,08,11.70
2011,08,08,05,09,11.70
2011,08,08,05,10,11.70
2011,08,08,05,11,11.60
2011,08,08,05,12,11.60
2011,08,08,05,13,11.60
2011,08,08,05,14,11.60
2011,08,08,05,15,11.60
2011,08,08,05,16,11.60
2011,08,08,05,17,11.60
2011,08,08,05,18,11.60
2011,08,08,05,19,11.60
2011,08,08,05,20,11.50
2011,08,08,05,21,11.50
2011,08,08,05,22,11.50
2011,08,08,05,23,11.50
2011,08,08,05,24,11.40
2011,08,08,05,25,11.40
2011,08,08,05,26,11.40
2011,08,08,05,27,11.40
2011,08,08,05,28,11.40
2011,08,08,05,29,11.40
2011,08,08,05,30,11.40
2011,08,08,05,31,11.40
2011,08,08,05,32,11.40
2011,08,08,05,33,11.40
2011,08,08,05,34,11.40
2011,08,08,05,35,11.40
2011,08,08,05,36,11.30
2011,08,08,05,37,11.30
2011,08,08,05,38,11.30
2011,08,08,05,39,11.30
2011,08,08,05,40,11.30
2011,08,08,05,41,11.30
2011,08,08,05,42,11.30
2011,08,08,05,43,11.30
2011,08,08,05,44,11.30
2011,08,08,05,45,11.30
2011,08,08,05,46,11.30
2011,08,08,05,47,11.30
2011,08,08,05,48,11.30
2011,08,08,05,49,11.30
2011,08,08,05,50,11.30
2011,08,08,05,51,11.30
2011,08,08,05,52,11.30
2011,08,08,05,53,11.30
2011,08,08,05,54,11.30
2011,08,08,05,55,11.30
2011,08,08,05,56,11.30
2011,08,08,05,57,11.30
2011,08,08,05,58,11.30
2011,08,08,05,59,11.30
2011,08,08,06,00,11.30
2011,08,08,06,01,11.20
2011,08,08,06,02,11.20
2011,08,08,06,03,11.20
2011,08,08,06,04,11.20
2011,08,08,06,05,11.20
2011,08,08,06,06,11.20
2011,08,08,06,07,11.20
2011,08,08,06,08,11.20
2011,08,08,06,09,11.10
2011,08,08,06,10,11.10
2011,08,08,06,11,11.20
2011,08,08,06,12,11.20
2011,08,08,06,13,11.20
2011,08,08,06,14,11.20
2011,08,08,06,15,11.20
2011,08,08,06,16,11.20
2011,08,08,06,17,11.20
2011,08,08,06,18,11.10
2011,08,08,06,19,11.10
2011,08,08,06,20,11.10
2011,08,08,06,21,11.10
2011,08,08,06,22,11.10
2011,08,08,06,23,11.10
2011,08,08,06,24,11.10
2011,08,08,06,25,11.10
2011,08,08,06,26,11.10
2011,08,08,06,27,11.20
2011,08,08,06,28,11.20
2011,08,08,06,29,11.20
2011,08,08,06,30,11.10
2011,08,08,06,31,11.20
2011,08,08,06,32,11.20
2011,08,08,06,33,11.20
2011,08,08,06,34,11.20
2011,08,08,06,35,11.20
2011,08,08,06,36,11.20
2011,08,08,06,37,11.20
2011,08,08,06,38,11.20
2011,08,08,06,39,11.20
2011,08,08,06,40,11.20
2011,08,08,06,41,11.20
2011,08,08,06,42,11.30
2011,08,08,06,43,11.30
2011,08,08,06,44,11.30
2011,08,08,06,45,11.30
2011,08,08,06,46,11.30
2011,08,08,06,47,11.30
2011,08,08,06,48,11.30
2011,08,08,06,49,11.40
2011,08,08,06,50,11.40
2011,08,08,06,51,11.40
2011,08,08,06,52,11.40
2011,08,08,06,53,11.40
2011,08,08,06,54,11.50
2011,08,08,06,55,11.50
2011,08,08,06,56,11.60
2011,08,08,06,57,11.60
2011,08,08,06,58,11.70
2011,08,08,06,59,11.70
2011,08,08,07,00,11.80
2011,08,08,07,01,11.80
2011,08,08,07,02,11.80
2011,08,08,07,03,11.90
2011,08,08,07,04,11.90
2011,08,08,07,05,11.90
2011,08,08,07,06,12.00
2011,08,08,07,07,12.00
2011,08,08,07,08,12.00
2011,08,08,07,09,12.10
2011,08,08,07,10,12.10
2011,08,08,07,11,12.10
2011,08,08,07,12,12.10
2011,08,08,07,13,12.10
2011,08,08,07,14,12.10
2011,08,08,07,15,12.10
2011,08,08,07,16,12.20
2011,08,08,07,17,12.20
2011,08,08,07,18,12.20
2011,08,08,07,19,12.20
2011,08,08,07,20,12.30
2011,08,08,07,21,12.30
2011,08,08,07,22,12.30
2011,08,08,07,23,12.30
2011,08,08,07,24,12.40
2011,08,08,07,25,12.40
2011,08,08,07,26,12.40
2011,08,08,07,27,12.50
2011,08,08,07,28,12.50
2011,08,08,07,29,12.50
2011,08,08,07,30,12.60
2011,08,08,07,31,12.60
2011,08,08,07,32,12.70
2011,08,08,07,33,12.70
2011,08,08,07,34,12.70
2011,08,08,07,35,12.70
2011,08,08,07,36,12.80
2011,08,08,07,37,12.90
2011,08,08,07,38,12.90
2011,08,08,07,39,13.00
2011,08,08,07,40,13.10
2011,08,08,07,41,13.10
2011,08,08,07,42,13.20
2011,08,08,07,43,13.30
2011,08,08,07,44,13.30
2011,08,08,07,45,13.30
2011,08,08,07,46,13.40
2011,08,08,07,47,13.40
2011,08,08,07,48,13.50
2011,08,08,07,49,13.50
2011,08,08,07,50,13.60
2011,08,08,07,51,13.60
2011,08,08,07,52,13.60
2011,08,08,07,53,13.60
2011,08,08,07,54,13.60
2011,08,08,07,55,13.70
2011,08,08,07,56,13.80
2011,08,08,07,57,13.90
2011,08,08,07,58,14.00
2011,08,08,07,59,14.10
2011,08,08,08,00,14.20
2011,08,08,08,01,14.30
2011,08,08,08,02,14.30
2011,08,08,08,03,14.40
2011,08,08,08,04,14.40
2011,08,08,08,05,14.40
2011,08,08,08,06,14.40
2011,08,08,08,07,14.50
2011,08,08,08,08,14.50
2011,08,08,08,09,14.60
2011,08,08,08,10,14.60
2011,08,08,08,11,14.60
2011,08,08,08,12,14.60
2011,08,08,08,13,14.70
2011,08,08,08,14,14.70
2011,08,08,08,15,14.80
2011,08,08,08,16,14.80
2011,08,08,08,17,14.80
2011,08,08,08,18,14.90
2011,08,08,08,19,14.90
2011,08,08,08,20,15.00
2011,08,08,08,21,15.10
2011,08,08,08,22,15.10
2011,08,08,08,23,15.20
2011,08,08,08,24,15.30
2011,08,08,08,25,15.30
2011,08,08,08,26,15.40
2011,08,08,08,27,15.50
2011,08,08,08,28,15.60
2011,08,08,08,29,15.70
2011,08,08,08,30,15.70
2011,08,08,08,31,15.80
2011,08,08,08,32,15.80
2011,08,08,08,33,15.80
2011,08,08,08,34,15.80
2011,08,08,08,35,15.90
2011,08,08,08,36,15.90
2011,08,08,08,37,15.90
2011,08,08,08,38,15.90
2011,08,08,08,39,16.00
2011,08,08,08,40,16.00
2011,08,08,08,41,16.10
2011,08,08,08,42,16.10
2011,08,08,08,43,16.20
2011,08,08,08,44,16.20
2011,08,08,08,45,16.30
2011,08,08,08,46,16.40
2011,08,08,08,47,16.40
2011,08,08,08,48,16.50
2011,08,08,08,49,16.50
2011,08,08,08,50,16.60
2011,08,08,08,51,16.60
2011,08,08,08,52,16.70
2011,08,08,08,53,16.80
2011,08,08,08,54,16.80
2011,08,08,08,55,16.90
2011,08,08,08,56,17.00
2011,08,08,08,57,17.00
2011,08,08,08,58,17.00
2011,08,08,08,59,17.10
2011,08,08,09,00,17.00
2011,08,08,09,01,17.00
2011,08,08,09,02,16.90
2011,08,08,09,03,16.90
2011,08,08,09,04,16.80
2011,08,08,09,05,16.80
2011,08,08,09,06,16.80
2011,08,08,09,07,16.80
2011,08,08,09,08,16.80
2011,08,08,09,09,16.80
2011,08,08,09,10,16.80
2011,08,08,09,11,16.70
2011,08,08,09,12,16.70
2011,08,08,09,13,16.70
2011,08,08,09,14,16.70
2011,08,08,09,15,16.70
2011,08,08,09,16,16.70
2011,08,08,09,17,16.70
2011,08,08,09,18,16.70
2011,08,08,09,19,16.70
2011,08,08,09,20,16.70
2011,08,08,09,21,16.60
2011,08,08,09,22,16.60
2011,08,08,09,23,16.60
2011,08,08,09,24,16.50
2011,08,08,09,25,16.50
2011,08,08,09,26,16.40
2011,08,08,09,27,16.40
2011,08,08,09,28,16.30
2011,08,08,09,29,16.30
2011,08,08,09,30,16.30
2011,08,08,09,31,16.30
2011,08,08,09,32,16.30
2011,08,08,09,33,16.30
2011,08,08,09,34,16.40
2011,08,08,09,35,16.40
2011,08,08,09,36,16.40
2011,08,08,09,37,16.40
2011,08,08,09,38,16.50
2011,08,08,09,39,16.50
2011,08,08,09,40,16.60
2011,08,08,09,41,16.60
2011,08,08,09,42,16.60
2011,08,08,09,43,16.60
2011,08,08,09,44,16.70
2011,08,08,09,45,16.70
2011,08,08,09,46,16.70
2011,08,08,09,47,16.70
2011,08,08,09,48,16.80
2011,08,08,09,49,16.80
2011,08,08,09,50,16.80
2011,08,08,09,51,16.80
2011,08,08,09,52,16.80
2011,08,08,09,53,16.80
2011,08,08,09,54,16.80
2011,08,08,09,55,16.80
2011,08,08,09,56,16.80
2011,08,08,09,57,16.80
2011,08,08,09,58,16.80
2011,08,08,09,59,16.90
2011,08,08,10,00,16.90
2011,08,08,10,01,16.90
2011,08,08,10,02,17.00
2011,08,08,10,03,17.00
2011,08,08,10,04,17.00
2011,08,08,10,05,17.10
2011,08,08,10,06,17.10
2011,08,08,10,07,17.20
2011,08,08,10,08,17.20
2011,08,08,10,09,17.20
2011,08,08,10,10,17.10
2011,08,08,10,11,17.10
2011,08,08,10,12,17.10
2011,08,08,10,13,17.10
2011,08,08,10,14,17.00
2011,08,08,10,15,17.10
2011,08,08,10,16,17.10
2011,08,08,10,17,17.10
2011,08,08,10,18,17.20
2011,08,08,10,19,17.20
2011,08,08,10,20,17.20
2011,08,08,10,21,17.20
2011,08,08,10,22,17.20
2011,08,08,10,23,17.30
2011,08,08,10,24,17.30
2011,08,08,10,25,17.30
2011,08,08,10,26,17.30
2011,08,08,10,27,17.20
2011,08,08,10,28,17.20
2011,08,08,10,29,17.30
2011,08,08,10,30,17.30
2011,08,08,10,31,17.30
2011,08,08,10,32,17.30
2011,08,08,10,33,17.30
2011,08,08,10,34,17.30
2011,08,08,10,35,17.20
2011,08,08,10,36,17.20
2011,08,08,10,37,17.10
2011,08,08,10,38,17.10
2011,08,08,10,39,17.10
2011,08,08,10,40,17.20
2011,08,08,10,41,17.20
2011,08,08,10,42,17.20
2011,08,08,10,43,17.20
2011,08,08,10,44,17.30
2011,08,08,10,45,17.30
2011,08,08,10,46,17.30
2011,08,08,10,47,17.30
2011,08,08,10,48,17.40
2011,08,08,10,49,17.40
2011,08,08,10,50,17.40
2011,08,08,10,51,17.50
2011,08,08,10,52,17.50
2011,08,08,10,53,17.50
2011,08,08,10,54,17.40
2011,08,08,10,55,17.40
2011,08,08,10,56,17.50
2011,08,08,10,57,17.50
2011,08,08,10,58,17.50
2011,08,08,10,59,17.60
2011,08,08,11,00,17.60
2011,08,08,11,01,17.60
2011,08,08,11,02,17.70
2011,08,08,11,03,17.70
2011,08,08,11,04,17.70
2011,08,08,11,05,17.70
2011,08,08,11,06,17.80
2011,08,08,11,07,17.80
2011,08,08,11,08,17.80
2011,08,08,11,09,17.80
2011,08,08,11,10,17.90
2011,08,08,11,11,17.90
2011,08,08,11,12,18.00
2011,08,08,11,13,18.10
2011,08,08,11,14,18.20
2011,08,08,11,15,18.20
2011,08,08,11,16,18.30
2011,08,08,11,17,18.40
2011,08,08,11,18,18.40
2011,08,08,11,19,18.50
2011,08,08,11,20,18.60
2011,08,08,11,21,18.60
2011,08,08,11,22,18.60
2011,08,08,11,23,18.50
2011,08,08,11,24,18.40
2011,08,08,11,25,18.40
2011,08,08,11,26,18.40
2011,08,08,11,27,18.30
2011,08,08,11,28,18.20
2011,08,08,11,29,18.10
2011,08,08,11,30,18.00
2011,08,08,11,31,18.00
2011,08,08,11,32,17.90
2011,08,08,11,33,18.00
2011,08,08,11,34,18.00
2011,08,08,11,35,18.00
2011,08,08,11,36,18.10
2011,08,08,11,37,18.10
2011,08,08,11,38,18.10
2011,08,08,11,39,18.10
2011,08,08,11,40,18.10
2011,08,08,11,41,18.10
2011,08,08,11,42,18.10
2011,08,08,11,43,18.10
2011,08,08,11,44,18.20
2011,08,08,11,45,18.20
2011,08,08,11,46,18.20
2011,08,08,11,47,18.10
2011,08,08,11,48,18.10
2011,08,08,11,49,18.20
2011,08,08,11,50,18.20
2011,08,08,11,51,18.20
2011,08,08,11,52,18.10
2011,08,08,11,53,18.10
2011,08,08,11,54,18.20
2011,08,08,11,55,18.20
2011,08,08,11,56,18.20
2011,08,08,11,57,18.20
2011,08,08,11,58,18.30
2011,08,08,11,59,18.30
2011,08,08,12,00,18.30
2011,08,08,12,01,18.30
2011,08,08,12,02,18.30
2011,08,08,12,03,18.40
2011,08,08,12,04,18.40
2011,08,08,12,05,18.50
2011,08,08,12,06,18.60
2011,08,08,12,07,18.60
2011,08,08,12,08,18.70
2011,08,08,12,09,18.70
2011,08,08,12,10,18.70
2011,08,08,12,11,18.70
2011,08,08,12,12,18.70
2011,08,08,12,13,18.70
2011,08,08,12,14,18.60
2011,08,08,12,15,18.60
2011,08,08,12,16,18.50
2011,08,08,12,17,18.50
2011,08,08,12,18,18.60
2011,08,08,12,19,18.60
2011,08,08,12,20,18.60
2011,08,08,12,21,18.60
2011,08,08,12,22,18.70
2011,08,08,12,23,18.80
2011,08,08,12,24,18.90
2011,08,08,12,25,18.90
2011,08,08,12,26,18.90
2011,08,08,12,27,18.90
2011,08,08,12,28,18.90
2011,08,08,12,29,18.90
2011,08,08,12,30,18.90
2011,08,08,12,31,18.90
2011,08,08,12,32,18.80
2011,08,08,12,33,18.80
2011,08,08,12,34,18.80
2011,08,08,12,35,18.80
2011,08,08,12,36,18.80
2011,08,08,12,37,18.70
2011,08,08,12,38,18.70
2011,08,08,12,39,18.60
2011,08,08,12,40,18.60
2011,08,08,12,41,18.50
2011,08,08,12,42,18.50
2011,08,08,12,43,18.50
2011,08,08,12,44,18.40
2011,08,08,12,45,18.50
2011,08,08,12,46,18.50
2011,08,08,12,47,18.50
2011,08,08,12,48,18.50
2011,08,08,12,49,18.60
2011,08,08,12,50,18.60
2011,08,08,12,51,18.60
2011,08,08,12,52,18.60
2011,08,08,12,53,18.60
2011,08,08,12,54,18.60
2011,08,08,12,55,18.70
2011,08,08,12,56,18.80
2011,08,08,12,57,18.80
2011,08,08,12,58,18.80
2011,08,08,12,59,18.90
2011,08,08,13,00,18.90
2011,08,08,13,01,18.90
2011,08,08,13,02,18.90
2011,08,08,13,03,18.90
2011,08,08,13,04,18.90
2011,08,08,13,05,18.90
2011,08,08,13,06,18.90
2011,08,08,13,07,18.90
2011,08,08,13,08,18.90
2011,08,08,13,09,19.00
2011,08,08,13,10,19.10
2011,08,08,13,11,19.20
2011,08,08,13,12,19.20
2011,08,08,13,13,19.10
2011,08,08,13,14,19.10
2011,08,08,13,15,19.10
2011,08,08,13,16,19.10
2011,08,08,13,17,19.10
2011,08,08,13,18,19.10
2011,08,08,13,19,19.10
2011,08,08,13,20,19.10
2011,08,08,13,21,19.10
2011,08,08,13,22,19.20
2011,08,08,13,23,19.10
2011,08,08,13,24,19.20
2011,08,08,13,25,19.30
2011,08,08,13,26,19.30
2011,08,08,13,27,19.30
2011,08,08,13,28,19.30
2011,08,08,13,29,19.30
2011,08,08,13,30,19.40
2011,08,08,13,31,19.40
2011,08,08,13,32,19.40
2011,08,08,13,33,19.50
2011,08,08,13,34,19.40
2011,08,08,13,35,19.40
2011,08,08,13,36,19.40
2011,08,08,13,37,19.30
2011,08,08,13,38,19.30
2011,08,08,13,39,19.40
2011,08,08,13,40,19.60
2011,08,08,13,41,19.70
2011,08,08,13,42,19.70
2011,08,08,13,43,19.60
2011,08,08,13,44,19.50
2011,08,08,13,45,19.40
2011,08,08,13,46,19.30
2011,08,08,13,47,19.30
2011,08,08,13,48,19.20
2011,08,08,13,49,19.20
2011,08,08,13,50,19.30
2011,08,08,13,51,19.40
2011,08,08,13,52,19.50
2011,08,08,13,53,19.60
2011,08,08,13,54,19.70
2011,08,08,13,55,19.80
2011,08,08,13,56,19.90
2011,08,08,13,57,19.90
2011,08,08,13,58,19.80
2011,08,08,13,59,19.70
2011,08,08,14,00,19.60
2011,08,08,14,01,19.50
2011,08,08,14,02,19.40
2011,08,08,14,03,19.40
2011,08,08,14,04,19.50
2011,08,08,14,05,19.50
2011,08,08,14,06,19.60
2011,08,08,14,07,19.60
2011,08,08,14,08,19.60
2011,08,08,14,09,19.60
2011,08,08,14,10,19.60
2011,08,08,14,11,19.60
2011,08,08,14,12,19.70
2011,08,08,14,13,19.70
2011,08,08,14,14,19.70
2011,08,08,14,15,19.60
2011,08,08,14,16,19.50
2011,08,08,14,17,19.50
2011,08,08,14,18,19.60
2011,08,08,14,19,19.60
2011,08,08,14,20,19.60
2011,08,08,14,21,19.50
2011,08,08,14,22,19.50
2011,08,08,14,23,19.40
2011,08,08,14,24,19.40
2011,08,08,14,25,19.40
2011,08,08,14,26,19.40
2011,08,08,14,27,19.40
2011,08,08,14,28,19.50
2011,08,08,14,29,19.70
2011,08,08,14,30,19.80
2011,08,08,14,31,19.90
2011,08,08,14,32,19.90
2011,08,08,14,33,19.90
2011,08,08,14,34,19.90
2011,08,08,14,35,19.90
2011,08,08,14,36,19.90
2011,08,08,14,37,19.90
2011,08,08,14,38,19.90
2011,08,08,14,39,19.80
2011,08,08,14,40,19.70
2011,08,08,14,41,19.60
2011,08,08,14,42,19.60
2011,08,08,14,43,19.70
2011,08,08,14,44,19.80
2011,08,08,14,45,19.90
2011,08,08,14,46,19.90
2011,08,08,14,47,19.80
2011,08,08,14,48,19.70
2011,08,08,14,49,19.60
2011,08,08,14,50,19.50
2011,08,08,14,51,19.50
2011,08,08,14,52,19.60
2011,08,08,14,53,19.70
2011,08,08,14,54,19.80
2011,08,08,14,55,19.80
2011,08,08,14,56,19.80
2011,08,08,14,57,19.80
2011,08,08,14,58,19.80
2011,08,08,14,59,19.80
2011,08,08,15,00,19.80
2011,08,08,15,01,19.80
2011,08,08,15,02,19.70
2011,08,08,15,03,19.60
2011,08,08,15,04,19.50
2011,08,08,15,05,19.50
2011,08,08,15,06,19.50
2011,08,08,15,07,19.60
2011,08,08,15,08,19.70
2011,08,08,15,09,19.60
2011,08,08,15,10,19.60
2011,08,08,15,11,19.60
2011,08,08,15,12,19.50
2011,08,08,15,13,19.40
2011,08,08,15,14,19.40
2011,08,08,15,15,19.50
2011,08,08,15,16,19.70
2011,08,08,15,17,19.80
2011,08,08,15,18,19.70
2011,08,08,15,19,19.60
2011,08,08,15,20,19.60
2011,08,08,15,21,19.60
2011,08,08,15,22,19.60
2011,08,08,15,23,19.70
2011,08,08,15,24,19.70
2011,08,08,15,25,19.60
2011,08,08,15,26,19.60
2011,08,08,15,27,19.60
2011,08,08,15,28,19.70
2011,08,08,15,29,19.70
2011,08,08,15,30,19.80
2011,08,08,15,31,19.80
2011,08,08,15,32,19.70
2011,08,08,15,33,19.70
2011,08,08,15,34,19.70
2011,08,08,15,35,19.70
2011,08,08,15,36,19.60
2011,08,08,15,37,19.50
2011,08,08,15,38,19.30
2011,08,08,15,39,19.20
2011,08,08,15,40,19.20
2011,08,08,15,41,19.10
2011,08,08,15,42,19.10
2011,08,08,15,43,19.20
2011,08,08,15,44,19.30
2011,08,08,15,45,19.30
2011,08,08,15,46,19.40
2011,08,08,15,47,19.40
2011,08,08,15,48,19.40
2011,08,08,15,49,19.30
2011,08,08,15,50,19.30
2011,08,08,15,51,19.20
2011,08,08,15,52,19.20
2011,08,08,15,53,19.20
2011,08,08,15,54,19.20
2011,08,08,15,55,19.20
2011,08,08,15,56,19.20
2011,08,08,15,57,19.30
2011,08,08,15,58,19.30
2011,08,08,15,59,19.40
2011,08,08,16,00,19.40
2011,08,08,16,01,19.50
2011,08,08,16,02,19.70
2011,08,08,16,03,19.90
2011,08,08,16,04,19.90
2011,08,08,16,05,19.90
2011,08,08,16,06,19.90
2011,08,08,16,07,19.90
2011,08,08,16,08,19.80
2011,08,08,16,09,19.80
2011,08,08,16,10,19.90
2011,08,08,16,11,20.00
2011,08,08,16,12,20.00
2011,08,08,16,13,20.00
2011,08,08,16,14,19.90
2011,08,08,16,15,19.90
2011,08,08,16,16,19.90
2011,08,08,16,17,20.00
2011,08,08,16,18,20.00
2011,08,08,16,19,20.00
2011,08,08,16,20,20.00
2011,08,08,16,21,20.00
2011,08,08,16,22,20.00
2011,08,08,16,23,19.90
2011,08,08,16,24,20.00
2011,08,08,16,25,20.00
2011,08,08,16,26,20.00
2011,08,08,16,27,20.00
2011,08,08,16,28,20.00
2011,08,08,16,29,20.10
2011,08,08,16,30,20.10
2011,08,08,16,31,20.20
2011,08,08,16,32,20.20
2011,08,08,16,33,20.20
2011,08,08,16,34,20.30
2011,08,08,16,35,20.40
2011,08,08,16,36,20.60
2011,08,08,16,37,20.80
2011,08,08,16,38,20.90
2011,08,08,16,39,21.00
2011,08,08,16,40,21.10
2011,08,08,16,41,21.10
2011,08,08,16,42,21.20
2011,08,08,16,43,21.20
2011,08,08,16,44,21.30
2011,08,08,16,45,21.30
2011,08,08,16,46,21.30
2011,08,08,16,47,21.10
2011,08,08,16,48,21.10
2011,08,08,16,49,21.00
2011,08,08,16,50,20.90
2011,08,08,16,51,20.80
2011,08,08,16,52,20.70
2011,08,08,16,53,20.70
2011,08,08,16,54,20.70
2011,08,08,16,55,20.70
2011,08,08,16,56,20.70
2011,08,08,16,57,20.70
2011,08,08,16,58,20.70
2011,08,08,16,59,20.70
2011,08,08,17,00,20.80
2011,08,08,17,01,20.80
2011,08,08,17,02,20.80
2011,08,08,17,03,20.80
2011,08,08,17,04,20.80
2011,08,08,17,05,20.90
2011,08,08,17,06,21.00
2011,08,08,17,07,21.10
2011,08,08,17,08,21.30
2011,08,08,17,09,21.30
2011,08,08,17,10,21.30
2011,08,08,17,11,21.20
2011,08,08,17,12,21.10
2011,08,08,17,13,21.20
2011,08,08,17,14,21.20
2011,08,08,17,15,21.20
2011,08,08,17,16,21.20
2011,08,08,17,17,21.10
2011,08,08,17,18,21.00
2011,08,08,17,19,20.90